Location: Unspecified
(40.9447°N, 78.9903°W)
Time: 03:51:33
(UTC-04:00)

Okean 3 - Pass Details

Date: 29 July 2021
Orbit: 575 x 601 km, 82.5° (Epoch: 26 September)

Event Time Altitude Azimuth Distance (km) Brightness Sun altitude
Rises 01:06:58 0° 10° (N) 2,851 8.1 -30.3°
Reaches altitude 10° 01:09:59 10° 32° (NNE) 1,939 6.7 -30.3°
Enters shadow 01:11:54 15° 59° (ENE) 1,610 5.9 -30.3°
